DAFH

Details ICAO DAFH (HRM)
Name HASSI R MEL
Region Algeria
Timezone Africa/Algiers (UTC+1.0)
Plans Departing 4
Arriving 3
Stats Elevation 2,540 ft / 774 m (AMSL)
Location 32.931368° 3.310321°
Runways 2
Magnetic Variation 0.987° E
Sunrise 2018-05-21 04:45:22 UTC / 2018-05-21 05:45:22 Local
Sunset 2018-05-21 18:44:11 UTC / 2018-05-21 19:44:11 Local
Advertisement - Login to hide

Runways

ID Width Length Bearing (true) Bearing (mag) Surface Threshold Offset Overrun Length
08 148 ft / 45 m 9,818 ft / 2,993 m 79.11° 78.12° Asphalt 0 ft / 0 m 340 ft / 104 m
09 100 ft / 30 m 4,684 ft / 1,428 m 88.10° 87.11° Asphalt 280 ft / 85 m 175 ft / 53 m
26 148 ft / 45 m 9,818 ft / 2,993 m 259.13° 258.14° Asphalt 0 ft / 0 m 125 ft / 38 m
27 100 ft / 30 m 4,684 ft / 1,428 m 268.11° 267.12° Asphalt 0 ft / 0 m 0 ft / 0 m

Map

Weather


0- 5 10 15 20 25 30 35+ Temperature / ° C

Clouds and Precipitation
Forecast for 2018-05-21 12:00 UTC. Updated 2 hours ago

Ground ~20,000 ft ~40,000 ft Winds

METAR

DAFH 211200Z 00000KT 9999 BKN030 26/08 Q1013

TAF

Not found
Warning: Do not use this data for real-world aviation or navigation. No guarantee of current accuracy is given.